Showing default

SECOR 4 (EGRS 4), 1315

Orbit data source: Space-Track

SECOR 4 (EGRS 4), 1315 is an American payload satellite in LEO that was launched on Sat, 03 Apr 1965 UTC via an ATLAS SLV-3 AGENA D launch vehicle from the Air Force Western Test Range (AFWTR). Payload-class satellites include a variety of spacecraft equipped with specific instruments for various scientific and technological missions. These include communications satellites like Starlink; space stations such as the ISS; scientific satellites like the Hubble; Earth observation satellites from companies like Planet Labs, Umbra, and HawkEye 360; GPS; miniature CubeSats for education and research; and military/defense satellites.

Loading next visibility...
Identifier
1315, 1965-027B
Orbit
LEO
Country
Flag of USUS
Related business
Manufacturer
ITT
Mission
Spacecraft
Bus & Motor
SECOR, Unknown motor
Mass
18 kg wet, 18 kg dry
Launch date (UTC)
1965-04-03 (61 years ago)
Launch vehicle
ATLAS SLV-3 AGENA D
Launch site
Air Force Western Test Range (AFWTR)
Object type
Payload
Rocket body
Debris
Shape & HBR
Unknown
Radar Cross Section
Medium (>0.1 m² and <1 m²)

Expand to show TLE details & history
Last TLE update: 10 hours ago

TLE from 10 hours ago
0 SECOR 4 (EGRS 4)
1 01315U 65027B   25352.53305346  .00000093  00000-0  31711-3 0  9994
2 01315  90.2439  11.4783 0029843 314.3944 170.1422 12.92662647863589
Epoch: 2025-12-18T12:47Z
TLE epoch observation values (Epoch: 2025-12-18T12:47:35.818Z)
Latitude
55.49487°
Longitude
-87.4551°
Altitude
1,322.794 km
Speed
7.19 km/s
True Right ascension
12h 47m 19s
True Declination
55° 20' 45"
Sunlit
Object was in daylight at epoch
Visualization orbit readout
Latitude
Unknown
Longitude
Unknown
Altitude
Unknown
Speed
Unknown
Apparent Right ascension
Unknown
Apparent Declination
Unknown
Sunlit
N/A
Visualization observer readout
Local Sidereal Time
21:34:10
Azimuth
Unknown
Elevation
Unknown
Doppler factor
Unknown
Orbital elements
Apogee altitude
1,310.987 km
Perigee altitude
1,265.23 km
Semi-major axis
7,666.246 km
Eccentricity
0.00298
Inclination
90.2439°
RAAN
11.4783°
Arg. of periapsis
314.3944°
True anomaly
170.20053°
Mean anomaly
170.1422°
Eccentric anomaly
170.17139°
Mean motion
3.23347 °/min
Orbital period
111.34 mins
BSTAR
0.00031711
Loading maneuver chart data...
Computing Atmospheric mass density...
Loading historical data...
Loading historical data...
Loading historical data...
Loading historical data...
Loading historical data...
Loading historical data...
Loading historical data...

Documentation

Showing up to 5 results
|